Time,TemperatureF,DewpointF,PressureIn,WindDirection,WindDirectionDegrees,WindSpeedMPH,WindSpeedGustMPH,Humidity,HourlyPrecipIn,Conditions,Clouds,dailyrainin,SoftwareType,DateUTC
2013-03-30 07:33:00,67.8,56.0,31.20,ENE,77,4.0,9.0,66,0.00,,,0.00,Wunderground v.1.15,2013-03-30 11:33:00,
2013-03-30 07:34:00,67.8,56.0,31.19,ENE,77,4.0,9.0,66,0.00,,,0.00,Wunderground v.1.15,2013-03-30 11:34:00,
2013-03-30 07:35:00,67.8,55.6,31.19,ENE,72,4.0,9.0,65,0.00,,,0.00,Wunderground v.1.15,2013-03-30 11:35:00,
2013-03-30 07:36:00,67.8,55.6,31.20,East,91,4.0,9.0,65,0.00,,,0.00,Wunderground v.1.15,2013-03-30 11:36:00,
2013-03-30 07:42:00,67.9,56.1,31.20,ESE,110,4.0,9.0,66,0.00,,,0.00,Wunderground v.1.15,2013-03-30 11:42:00,
2013-03-30 07:48:00,68.0,54.9,31.20,East,85,4.0,9.0,63,0.00,,,0.00,Wunderground v.1.15,2013-03-30 11:48:00,
2013-03-30 07:53:00,68.2,56.0,31.20,East,97,5.0,9.0,65,0.00,,,0.00,Wunderground v.1.15,2013-03-30 11:53:00,
2013-03-30 07:59:00,68.2,56.0,31.20,ESE,105,5.0,9.0,65,0.00,,,0.00,Wunderground v.1.15,2013-03-30 11:59:00,
2013-03-30 08:04:00,68.6,55.9,31.21,SE,128,4.0,9.0,64,0.00,,,0.00,Wunderground v.1.15,2013-03-30 12:04:00,
2013-03-30 08:10:00,69.0,56.3,31.21,ENE,64,4.0,9.0,64,0.00,,,0.00,Wunderground v.1.15,2013-03-30 12:10:00,
2013-03-30 08:15:00,69.2,56.5,31.21,East,101,4.0,9.0,64,0.00,,,0.00,Wunderground v.1.15,2013-03-30 12:15:00,
2013-03-30 08:22:00,69.2,57.4,31.22,ESE,107,4.0,9.0,66,0.00,,,0.00,Wunderground v.1.15,2013-03-30 12:22:00,
2013-03-30 08:28:00,69.7,56.5,31.22,East,81,4.0,9.0,63,0.00,,,0.00,Wunderground v.1.15,2013-03-30 12:28:00,
2013-03-30 08:33:00,70.0,57.3,31.22,ENE,74,5.0,9.0,64,0.00,,,0.00,Wunderground v.1.15,2013-03-30 12:33:00,
2013-03-30 08:38:00,70.3,56.7,31.23,SSE,153,5.0,9.0,62,0.00,,,0.00,Wunderground v.1.15,2013-03-30 12:38:00,
2013-03-30 08:44:00,70.5,55.9,31.23,East,82,5.0,11.0,60,0.00,,,0.00,Wunderground v.1.15,2013-03-30 12:44:00,
2013-03-30 08:50:00,70.8,55.8,31.23,East,81,5.0,5.0,59,0.00,,,0.00,Wunderground v.1.15,2013-03-30 12:50:00,
2013-03-30 08:56:00,71.1,56.5,31.23,ENE,72,4.0,9.0,60,0.00,,,0.00,Wunderground v.1.15,2013-03-30 12:56:00,
2013-03-30 09:02:00,71.2,56.1,31.23,East,100,5.0,9.0,59,0.00,,,0.00,Wunderground v.1.15,2013-03-30 13:02:00,
2013-03-30 09:08:00,71.1,56.0,31.23,East,89,6.0,9.0,59,0.00,,,0.00,Wunderground v.1.15,2013-03-30 13:08:00,
2013-03-30 09:13:00,71.2,56.6,31.23,ESE,106,6.0,9.0,60,0.00,,,0.00,Wunderground v.1.15,2013-03-30 13:13:00,
2013-03-30 09:18:00,71.3,56.7,31.23,ENE,59,5.0,9.0,60,0.00,,,0.00,Wunderground v.1.15,2013-03-30 13:18:00,
2013-03-30 09:23:00,71.4,56.3,31.23,ESE,103,6.0,9.0,59,0.00,,,0.00,Wunderground v.1.15,2013-03-30 13:23:00,
2013-03-30 09:29:00,71.6,56.0,31.23,East,84,6.0,9.0,58,0.00,,,0.00,Wunderground v.1.15,2013-03-30 13:29:00,
2013-03-30 09:34:00,71.7,55.7,31.23,East,96,5.0,9.0,57,0.00,,,0.00,Wunderground v.1.15,2013-03-30 13:34:00,
2013-03-30 09:39:00,71.7,56.6,31.22,ESE,104,5.0,9.0,59,0.00,,,0.00,Wunderground v.1.15,2013-03-30 13:39:00,
2013-03-30 09:45:00,71.7,56.6,31.23,East,90,5.0,9.0,59,0.00,,,0.00,Wunderground v.1.15,2013-03-30 13:45:00,
2013-03-30 09:50:00,71.4,57.2,31.23,ENE,72,5.0,9.0,61,0.00,,,0.00,Wunderground v.1.15,2013-03-30 13:50:00,
2013-03-30 09:55:00,71.4,56.3,31.23,East,93,4.0,9.0,59,0.00,,,0.00,Wunderground v.1.15,2013-03-30 13:55:00,
2013-03-30 10:01:00,71.1,56.5,31.23,ENE,65,5.0,9.0,60,0.00,,,0.00,Wunderground v.1.15,2013-03-30 14:01:00,
2013-03-30 10:06:00,71.8,57.6,31.23,ESE,107,5.0,9.0,61,0.00,,,0.00,Wunderground v.1.15,2013-03-30 14:06:00,
2013-03-30 10:12:00,72.0,55.9,31.23,East,91,5.0,9.0,57,0.00,,,0.00,Wunderground v.1.15,2013-03-30 14:12:00,
2013-03-30 10:18:00,72.1,56.5,31.23,East,94,6.0,10.0,58,0.00,,,0.00,Wunderground v.1.15,2013-03-30 14:18:00,
2013-03-30 10:23:00,72.5,56.9,31.23,East,87,6.0,10.0,58,0.00,,,0.00,Wunderground v.1.15,2013-03-30 14:23:00,
2013-03-30 10:29:00,72.4,57.3,31.23,ESE,102,7.0,11.0,59,0.00,,,0.00,Wunderground v.1.15,2013-03-30 14:29:00,
2013-03-30 10:34:00,71.8,56.2,31.23,ENE,78,7.0,9.0,58,0.00,,,0.00,Wunderground v.1.15,2013-03-30 14:34:00,
2013-03-30 10:40:00,71.9,57.7,31.23,ENE,67,6.0,6.0,61,0.00,,,0.00,Wunderground v.1.15,2013-03-30 14:40:00,
2013-03-30 10:47:00,72.6,57.4,31.23,East,100,6.0,9.0,59,0.00,,,0.00,Wunderground v.1.15,2013-03-30 14:47:00,
2013-03-30 10:53:00,72.8,57.2,31.23,ENE,60,6.0,9.0,58,0.00,,,0.00,Wunderground v.1.15,2013-03-30 14:53:00,
2013-03-30 10:59:00,72.7,57.1,31.23,East,96,6.0,9.0,58,0.00,,,0.00,Wunderground v.1.15,2013-03-30 14:59:00,
2013-03-30 11:05:00,73.0,56.9,31.23,ESE,104,6.0,9.0,57,0.00,,,0.00,Wunderground v.1.15,2013-03-30 15:05:00,
2013-03-30 11:10:00,73.2,57.1,31.23,NNE,30,6.0,9.0,57,0.00,,,0.00,Wunderground v.1.15,2013-03-30 15:10:00,
2013-03-30 11:16:00,73.4,57.2,31.23,ESE,111,6.0,9.0,57,0.00,,,0.00,Wunderground v.1.15,2013-03-30 15:16:00,
2013-03-30 11:21:00,73.4,57.7,31.23,East,96,6.0,9.0,58,0.00,,,0.00,Wunderground v.1.15,2013-03-30 15:21:00,
2013-03-30 11:27:00,73.1,57.0,31.23,East,100,6.0,9.0,57,0.00,,,0.00,Wunderground v.1.15,2013-03-30 15:27:00,
2013-03-30 11:33:00,72.6,57.4,31.23,East,100,5.0,9.0,59,0.00,,,0.00,Wunderground v.1.15,2013-03-30 15:33:00,
2013-03-30 11:39:00,72.7,57.5,31.23,ESE,102,5.0,9.0,59,0.00,,,0.00,Wunderground v.1.15,2013-03-30 15:39:00,
2013-03-30 11:45:00,73.4,57.7,31.23,East,91,6.0,10.0,58,0.00,,,0.00,Wunderground v.1.15,2013-03-30 15:45:00,
2013-03-30 11:52:00,73.1,58.8,31.23,East,86,6.0,9.0,61,0.00,,,0.00,Wunderground v.1.15,2013-03-30 15:52:00,
2013-03-30 11:57:00,73.7,58.5,31.22,ESE,105,5.0,9.0,59,0.00,,,0.00,Wunderground v.1.15,2013-03-30 15:57:00,
2013-03-30 12:02:00,73.9,58.7,31.22,ENE,68,5.0,9.0,59,0.00,,,0.00,Wunderground v.1.15,2013-03-30 16:02:00,
2013-03-30 12:08:00,73.7,57.5,31.22,East,86,6.0,9.0,57,0.00,,,0.00,Wunderground v.1.15,2013-03-30 16:08:00,
2013-03-30 12:14:00,73.6,57.9,31.22,North,6,5.0,9.0,58,0.00,,,0.00,Wunderground v.1.15,2013-03-30 16:14:00,
2013-03-30 12:19:00,73.8,57.1,31.22,ESE,104,6.0,10.0,56,0.00,,,0.00,Wunderground v.1.15,2013-03-30 16:19:00,
2013-03-30 12:24:00,73.7,57.5,31.22,ESE,105,7.0,9.0,57,0.00,,,0.00,Wunderground v.1.15,2013-03-30 16:24:00,
2013-03-30 12:29:00,74.0,57.3,31.22,NNE,20,6.0,9.0,56,0.00,,,0.00,Wunderground v.1.15,2013-03-30 16:29:00,
2013-03-30 12:35:00,74.8,58.1,31.21,ENE,63,6.0,9.0,56,0.00,,,0.00,Wunderground v.1.15,2013-03-30 16:35:00,
2013-03-30 12:42:00,74.7,58.5,31.21,SE,136,6.0,9.0,57,0.00,,,0.00,Wunderground v.1.15,2013-03-30 16:42:00,
2013-03-30 12:47:00,74.7,58.5,31.21,East,91,6.0,9.0,57,0.00,,,0.00,Wunderground v.1.15,2013-03-30 16:47:00,
2013-03-30 12:53:00,74.4,56.7,31.21,East,97,6.0,9.0,54,0.00,,,0.00,Wunderground v.1.15,2013-03-30 16:53:00,
2013-03-30 12:59:00,74.3,57.6,31.21,ENE,78,7.0,9.0,56,0.00,,,0.00,Wunderground v.1.15,2013-03-30 16:59:00,
2013-03-30 13:04:00,74.5,57.8,31.20,East,88,6.0,9.0,56,0.00,,,0.00,Wunderground v.1.15,2013-03-30 17:04:00,
2013-03-30 13:10:00,74.5,57.8,31.20,ESE,108,6.0,9.0,56,0.00,,,0.00,Wunderground v.1.15,2013-03-30 17:10:00,
2013-03-30 13:17:00,74.2,58.0,31.19,ESE,103,6.0,10.0,57,0.00,,,0.00,Wunderground v.1.15,2013-03-30 17:17:00,
2013-03-30 13:22:00,73.8,57.1,31.19,SE,133,7.0,10.0,56,0.00,,,0.00,Wunderground v.1.15,2013-03-30 17:22:00,
2013-03-30 13:28:00,74.0,58.3,31.19,ESE,108,6.0,10.0,58,0.00,,,0.00,Wunderground v.1.15,2013-03-30 17:28:00,
2013-03-30 13:33:00,74.2,58.0,31.19,ENE,78,6.0,9.0,57,0.00,,,0.00,Wunderground v.1.15,2013-03-30 17:33:00,
2013-03-30 13:39:00,73.9,57.2,31.19,East,96,6.0,11.0,56,0.00,,,0.00,Wunderground v.1.15,2013-03-30 17:39:00,
2013-03-30 13:44:00,74.3,57.6,31.19,ESE,115,6.0,9.0,56,0.00,,,0.00,Wunderground v.1.15,2013-03-30 17:44:00,
2013-03-30 13:52:00,74.2,58.5,31.18,East,97,6.0,9.0,58,0.00,,,0.00,Wunderground v.1.15,2013-03-30 17:52:00,
2013-03-30 13:58:00,74.2,58.0,31.18,North,360,7.0,10.0,57,0.00,,,0.00,Wunderground v.1.15,2013-03-30 17:58:00,
2013-03-30 14:03:00,74.1,56.9,31.18,East,89,7.0,9.0,55,0.00,,,0.00,Wunderground v.1.15,2013-03-30 18:03:00,
2013-03-30 14:09:00,74.3,57.1,31.18,East,82,7.0,9.0,55,0.00,,,0.00,Wunderground v.1.15,2013-03-30 18:09:00,
2013-03-30 14:14:00,74.2,58.0,31.18,East,93,6.0,11.0,57,0.00,,,0.00,Wunderground v.1.15,2013-03-30 18:14:00,
2013-03-30 14:20:00,74.6,56.9,31.18,ESE,119,6.0,6.0,54,0.00,,,0.00,Wunderground v.1.15,2013-03-30 18:20:00,
2013-03-30 14:25:00,74.6,57.4,31.18,East,87,6.0,9.0,55,0.00,,,0.00,Wunderground v.1.15,2013-03-30 18:25:00,
2013-03-30 14:30:00,74.8,57.0,31.17,East,79,6.0,9.0,54,0.00,,,0.00,Wunderground v.1.15,2013-03-30 18:30:00,
2013-03-30 14:36:00,74.5,57.3,31.17,East,79,6.0,9.0,55,0.00,,,0.00,Wunderground v.1.15,2013-03-30 18:36:00,
2013-03-30 14:42:00,74.8,57.0,31.17,ESE,103,7.0,9.0,54,0.00,,,0.00,Wunderground v.1.15,2013-03-30 18:42:00,
2013-03-30 14:47:00,74.3,57.6,31.16,East,99,6.0,9.0,56,0.00,,,0.00,Wunderground v.1.15,2013-03-30 18:47:00,
2013-03-30 14:52:00,74.5,56.8,31.16,NNE,29,6.0,9.0,54,0.00,,,0.00,Wunderground v.1.15,2013-03-30 18:52:00,
2013-03-30 14:58:00,74.4,56.2,31.16,ENE,58,6.0,11.0,53,0.00,,,0.00,Wunderground v.1.15,2013-03-30 18:58:00,
2013-03-30 15:03:00,73.8,55.6,31.16,ESE,102,8.0,12.0,53,0.00,,,0.00,Wunderground v.1.15,2013-03-30 19:03:00,
2013-03-30 15:09:00,73.8,55.6,31.15,ESE,108,8.0,12.0,53,0.00,,,0.00,Wunderground v.1.15,2013-03-30 19:09:00,
2013-03-30 15:14:00,74.1,55.9,31.16,ENE,77,7.0,9.0,53,0.00,,,0.00,Wunderground v.1.15,2013-03-30 19:14:00,
2013-03-30 15:20:00,74.4,55.6,31.15,NNE,32,6.0,6.0,52,0.00,,,0.00,Wunderground v.1.15,2013-03-30 19:20:00,
2013-03-30 15:25:00,74.6,56.3,31.15,East,86,6.0,11.0,53,0.00,,,0.00,Wunderground v.1.15,2013-03-30 19:25:00,
2013-03-30 15:31:00,74.3,56.1,31.15,ENE,68,6.0,9.0,53,0.00,,,0.00,Wunderground v.1.15,2013-03-30 19:31:00,
2013-03-30 15:36:00,74.7,54.8,31.15,ESE,107,5.0,9.0,50,0.00,,,0.00,Wunderground v.1.15,2013-03-30 19:36:00,
2013-03-30 15:42:00,74.5,55.2,31.15,ESE,117,5.0,9.0,51,0.00,,,0.00,Wunderground v.1.15,2013-03-30 19:42:00,
2013-03-30 15:48:00,74.8,55.5,31.15,ESE,117,5.0,9.0,51,0.00,,,0.00,Wunderground v.1.15,2013-03-30 19:48:00,
2013-03-30 15:54:00,74.7,55.4,31.15,East,98,5.0,9.0,51,0.00,,,0.00,Wunderground v.1.15,2013-03-30 19:54:00,
2013-03-30 16:00:00,74.8,55.5,31.15,ENE,75,5.0,11.0,51,0.00,,,0.00,Wunderground v.1.15,2013-03-30 20:00:00,
2013-03-30 16:05:00,74.5,55.2,31.15,East,101,5.0,11.0,51,0.00,,,0.00,Wunderground v.1.15,2013-03-30 20:05:00,
2013-03-30 16:10:00,74.2,55.4,31.14,East,101,6.0,6.0,52,0.00,,,0.00,Wunderground v.1.15,2013-03-30 20:10:00,
2013-03-30 16:15:00,74.1,55.3,31.14,East,85,5.0,9.0,52,0.00,,,0.00,Wunderground v.1.15,2013-03-30 20:15:00,
2013-03-30 16:21:00,74.2,56.5,31.14,East,80,5.0,9.0,54,0.00,,,0.00,Wunderground v.1.15,2013-03-30 20:21:00,
2013-03-30 16:26:00,74.2,55.4,31.14,ESE,108,5.0,9.0,52,0.00,,,0.00,Wunderground v.1.15,2013-03-30 20:26:00,
2013-03-30 16:32:00,74.4,56.7,31.14,NNE,23,5.0,9.0,54,0.00,,,0.00,Wunderground v.1.15,2013-03-30 20:32:00,
2013-03-30 16:39:00,74.1,56.4,31.14,ESE,114,4.0,9.0,54,0.00,,,0.00,Wunderground v.1.15,2013-03-30 20:39:00,
2013-03-30 16:47:00,73.9,56.2,31.14,East,88,5.0,9.0,54,0.00,,,0.00,Wunderground v.1.15,2013-03-30 20:47:00,
2013-03-30 16:52:00,74.1,56.4,31.14,East,82,5.0,9.0,54,0.00,,,0.00,Wunderground v.1.15,2013-03-30 20:52:00,
2013-03-30 16:58:00,73.9,56.7,31.14,East,79,5.0,9.0,55,0.00,,,0.00,Wunderground v.1.15,2013-03-30 20:58:00,
2013-03-30 17:04:00,74.0,56.8,31.13,ENE,69,5.0,9.0,55,0.00,,,0.00,Wunderground v.1.15,2013-03-30 21:04:00,
2013-03-30 17:10:00,74.2,57.0,31.13,East,89,4.0,9.0,55,0.00,,,0.00,Wunderground v.1.15,2013-03-30 21:10:00,
2013-03-30 17:15:00,74.0,57.3,31.13,ESE,106,4.0,9.0,56,0.00,,,0.00,Wunderground v.1.15,2013-03-30 21:15:00,
2013-03-30 17:21:00,73.7,56.5,31.13,East,91,4.0,5.0,55,0.00,,,0.00,Wunderground v.1.15,2013-03-30 21:21:00,
2013-03-30 17:26:00,73.5,57.3,31.13,East,92,5.0,9.0,57,0.00,,,0.00,Wunderground v.1.15,2013-03-30 21:26:00,
2013-03-30 17:32:00,73.5,57.3,31.13,East,79,4.0,9.0,57,0.00,,,0.00,Wunderground v.1.15,2013-03-30 21:32:00,
2013-03-30 17:37:00,73.2,57.1,31.13,ESE,105,4.0,9.0,57,0.00,,,0.00,Wunderground v.1.15,2013-03-30 21:37:00,
2013-03-30 17:42:00,73.0,56.9,31.13,ENE,78,5.0,9.0,57,0.00,,,0.00,Wunderground v.1.15,2013-03-30 21:42:00,
2013-03-30 17:47:00,72.9,57.3,31.13,SE,132,5.0,9.0,58,0.00,,,0.00,Wunderground v.1.15,2013-03-30 21:47:00,
2013-03-30 17:52:00,73.0,56.9,31.13,SE,125,4.0,9.0,57,0.00,,,0.00,Wunderground v.1.15,2013-03-30 21:52:00,
2013-03-30 17:58:00,72.8,56.7,31.12,East,80,4.0,9.0,57,0.00,,,0.00,Wunderground v.1.15,2013-03-30 21:58:00,
2013-03-30 18:03:00,72.8,56.2,31.12,ESE,117,4.0,9.0,56,0.00,,,0.00,Wunderground v.1.15,2013-03-30 22:03:00,
2013-03-30 18:08:00,72.6,56.5,31.12,East,100,5.0,9.0,57,0.00,,,0.00,Wunderground v.1.15,2013-03-30 22:08:00,
2013-03-30 18:14:00,72.4,56.8,31.12,East,91,4.0,9.0,58,0.00,,,0.00,Wunderground v.1.15,2013-03-30 22:14:00,
2013-03-30 18:20:00,72.1,57.0,31.12,East,82,4.0,9.0,59,0.00,,,0.00,Wunderground v.1.15,2013-03-30 22:20:00,
2013-03-30 18:25:00,72.2,57.5,31.12,ESE,103,5.0,9.0,60,0.00,,,0.00,Wunderground v.1.15,2013-03-30 22:25:00,
2013-03-30 18:30:00,71.9,56.8,31.12,ESE,117,5.0,9.0,59,0.00,,,0.00,Wunderground v.1.15,2013-03-30 22:30:00,
2013-03-30 18:37:00,71.7,56.6,31.13,ESE,106,5.0,9.0,59,0.00,,,0.00,Wunderground v.1.15,2013-03-30 22:37:00,
2013-03-30 18:43:00,71.4,57.7,31.13,ESE,115,4.0,9.0,62,0.00,,,0.00,Wunderground v.1.15,2013-03-30 22:43:00,
2013-03-30 18:48:00,71.2,57.5,31.13,East,98,4.0,9.0,62,0.00,,,0.00,Wunderground v.1.15,2013-03-30 22:48:00,
2013-03-30 18:53:00,71.0,56.9,31.13,East,96,4.0,9.0,61,0.00,,,0.00,Wunderground v.1.15,2013-03-30 22:53:00,
2013-03-30 18:58:00,70.7,57.0,31.13,East,93,4.0,9.0,62,0.00,,,0.00,Wunderground v.1.15,2013-03-30 22:58:00,
2013-03-30 19:04:00,70.6,57.4,31.13,ESE,103,4.0,9.0,63,0.00,,,0.00,Wunderground v.1.15,2013-03-30 23:04:00,
2013-03-30 19:09:00,70.4,56.8,31.13,ENE,64,4.0,9.0,62,0.00,,,0.00,Wunderground v.1.15,2013-03-30 23:09:00,
2013-03-30 19:15:00,70.2,57.0,31.13,ESE,103,4.0,9.0,63,0.00,,,0.00,Wunderground v.1.15,2013-03-30 23:15:00,
2013-03-30 19:20:00,70.2,57.4,31.13,ESE,111,3.0,9.0,64,0.00,,,0.00,Wunderground v.1.15,2013-03-30 23:20:00,
2013-03-30 19:25:00,70.0,56.8,31.13,East,86,3.0,9.0,63,0.00,,,0.00,Wunderground v.1.15,2013-03-30 23:25:00,
2013-03-30 19:32:00,69.8,57.1,31.13,East,94,4.0,9.0,64,0.00,,,0.00,Wunderground v.1.15,2013-03-30 23:32:00,
2013-03-30 19:38:00,69.7,57.4,31.13,SE,124,3.0,9.0,65,0.00,,,0.00,Wunderground v.1.15,2013-03-30 23:38:00,
2013-03-30 19:44:00,69.6,57.3,31.13,ESE,120,3.0,9.0,65,0.00,,,0.00,Wunderground v.1.15,2013-03-30 23:44:00,
2013-03-30 19:49:00,69.5,56.8,31.14,East,89,3.0,9.0,64,0.00,,,0.00,Wunderground v.1.15,2013-03-30 23:49:00,
2013-03-30 19:54:00,69.5,57.2,31.13,East,84,3.0,9.0,65,0.00,,,0.00,Wunderground v.1.15,2013-03-30 23:54:00,
2013-03-30 20:00:00,69.4,57.5,31.14,ENE,70,4.0,4.0,66,0.00,,,0.00,Wunderground v.1.15,2013-03-31 00:00:00,
2013-03-30 20:07:00,69.4,57.5,31.14,ESE,121,4.0,9.0,66,0.00,,,0.00,Wunderground v.1.15,2013-03-31 00:07:00,
2013-03-30 20:12:00,69.4,57.5,31.14,ESE,108,3.0,9.0,66,0.00,,,0.00,Wunderground v.1.15,2013-03-31 00:12:00,
2013-03-30 20:18:00,69.3,57.5,31.14,ESE,108,3.0,9.0,66,0.00,,,0.00,Wunderground v.1.15,2013-03-31 00:18:00,
2013-03-30 20:24:00,69.3,57.5,31.15,East,95,3.0,9.0,66,0.00,,,0.00,Wunderground v.1.15,2013-03-31 00:24:00,
2013-03-30 20:29:00,69.4,58.0,31.14,ENE,76,3.0,9.0,67,0.00,,,0.00,Wunderground v.1.15,2013-03-31 00:29:00,
2013-03-30 20:35:00,69.4,58.4,31.15,ESE,107,4.0,9.0,68,0.00,,,0.00,Wunderground v.1.15,2013-03-31 00:35:00,
2013-03-30 20:40:00,69.4,58.0,31.15,ESE,111,4.0,4.0,67,0.00,,,0.00,Wunderground v.1.15,2013-03-31 00:40:00,
2013-03-30 20:45:00,69.4,58.4,31.15,ESE,111,3.0,9.0,68,0.00,,,0.00,Wunderground v.1.15,2013-03-31 00:45:00,
2013-03-30 20:50:00,69.4,58.0,31.16,East,99,3.0,9.0,67,0.00,,,0.00,Wunderground v.1.15,2013-03-31 00:50:00,
2013-03-30 20:56:00,69.5,58.1,31.16,SE,129,3.0,9.0,67,0.00,,,0.00,Wunderground v.1.15,2013-03-31 00:56:00,
2013-03-30 21:01:00,69.6,57.7,31.16,ESE,102,3.0,9.0,66,0.00,,,0.00,Wunderground v.1.15,2013-03-31 01:01:00,
2013-03-30 21:07:00,69.7,59.1,31.16,ESE,120,4.0,9.0,69,0.00,,,0.00,Wunderground v.1.15,2013-03-31 01:07:00,
2013-03-30 21:13:00,69.6,58.6,31.16,ENE,74,4.0,9.0,68,0.00,,,0.00,Wunderground v.1.15,2013-03-31 01:13:00,
2013-03-30 21:18:00,69.7,58.3,31.16,East,98,3.0,9.0,67,0.00,,,0.00,Wunderground v.1.15,2013-03-31 01:18:00,
2013-03-30 21:24:00,69.7,58.7,31.16,ESE,104,4.0,9.0,68,0.00,,,0.00,Wunderground v.1.15,2013-03-31 01:24:00,
2013-03-30 21:30:00,69.7,58.3,31.16,East,84,4.0,9.0,67,0.00,,,0.00,Wunderground v.1.15,2013-03-31 01:30:00,
2013-03-30 21:35:00,69.6,58.2,31.16,East,82,4.0,9.0,67,0.00,,,0.00,Wunderground v.1.15,2013-03-31 01:35:00,
2013-03-30 21:42:00,69.6,58.2,31.16,East,82,4.0,9.0,67,0.00,,,0.00,Wunderground v.1.15,2013-03-31 01:42:00,
2013-03-30 21:47:00,69.6,58.2,31.16,ESE,108,4.0,9.0,67,0.00,,,0.00,Wunderground v.1.15,2013-03-31 01:47:00,
2013-03-30 21:52:00,69.6,58.6,31.17,ESE,105,4.0,9.0,68,0.00,,,0.00,Wunderground v.1.15,2013-03-31 01:52:00,
2013-03-30 21:58:00,69.7,57.8,31.17,East,83,4.0,9.0,66,0.00,,,0.00,Wunderground v.1.15,2013-03-31 01:58:00,
2013-03-30 22:04:00,69.7,58.3,31.17,SE,124,3.0,9.0,67,0.00,,,0.00,Wunderground v.1.15,2013-03-31 02:04:00,
2013-03-30 22:09:00,69.7,58.3,31.17,East,84,3.0,9.0,67,0.00,,,0.00,Wunderground v.1.15,2013-03-31 02:09:00,
2013-03-30 22:15:00,69.7,58.7,31.17,ESE,115,4.0,9.0,68,0.00,,,0.00,Wunderground v.1.15,2013-03-31 02:15:00,
2013-03-30 22:22:00,69.8,59.2,31.17,ENE,62,3.0,9.0,69,0.00,,,0.00,Wunderground v.1.15,2013-03-31 02:22:00,
2013-03-30 22:27:00,69.8,58.3,31.17,East,85,3.0,9.0,67,0.00,,,0.00,Wunderground v.1.15,2013-03-31 02:27:00,
2013-03-30 22:32:00,69.9,58.9,31.17,ENE,78,4.0,9.0,68,0.00,,,0.00,Wunderground v.1.15,2013-03-31 02:32:00,
2013-03-30 22:37:00,70.0,58.5,31.18,ENE,68,4.0,9.0,67,0.00,,,0.00,Wunderground v.1.15,2013-03-31 02:37:00,
2013-03-30 22:43:00,70.0,59.0,31.17,ESE,120,4.0,9.0,68,0.00,,,0.00,Wunderground v.1.15,2013-03-31 02:43:00,
2013-03-30 22:49:00,70.1,59.0,31.18,SE,132,3.0,9.0,68,0.00,,,0.00,Wunderground v.1.15,2013-03-31 02:49:00,
2013-03-30 22:54:00,70.2,58.7,31.17,ESE,120,4.0,9.0,67,0.00,,,0.00,Wunderground v.1.15,2013-03-31 02:54:00,
2013-03-30 23:00:00,70.3,59.2,31.17,East,93,4.0,9.0,68,0.00,,,0.00,Wunderground v.1.15,2013-03-31 03:00:00,
2013-03-30 23:05:00,70.3,59.2,31.17,East,100,4.0,9.0,68,0.00,,,0.00,Wunderground v.1.15,2013-03-31 03:05:00,
2013-03-30 23:11:00,70.2,58.7,31.17,East,88,4.0,9.0,67,0.00,,,0.00,Wunderground v.1.15,2013-03-31 03:11:00,
2013-03-30 23:16:00,70.3,59.2,31.17,ESE,120,4.0,9.0,68,0.00,,,0.00,Wunderground v.1.15,2013-03-31 03:16:00,
2013-03-30 23:22:00,70.4,58.9,31.17,ESE,121,4.0,9.0,67,0.00,,,0.00,Wunderground v.1.15,2013-03-31 03:22:00,
2013-03-30 23:28:00,70.4,59.7,31.17,ESE,112,4.0,9.0,69,0.00,,,0.00,Wunderground v.1.15,2013-03-31 03:28:00,
2013-03-30 23:33:00,70.5,59.4,31.17,East,93,4.0,9.0,68,0.00,,,0.00,Wunderground v.1.15,2013-03-31 03:33:00,
2013-03-30 23:39:00,70.4,58.5,31.17,SE,124,4.0,9.0,66,0.00,,,0.00,Wunderground v.1.15,2013-03-31 03:39:00,
2013-03-30 23:44:00,70.5,58.6,31.17,ESE,111,5.0,9.0,66,0.00,,,0.00,Wunderground v.1.15,2013-03-31 03:44:00,
2013-03-30 23:49:00,70.5,59.4,31.16,ESE,108,5.0,9.0,68,0.00,,,0.00,Wunderground v.1.15,2013-03-31 03:49:00,
2013-03-30 23:54:00,70.5,59.4,31.16,SE,124,4.0,9.0,68,0.00,,,0.00,Wunderground v.1.15,2013-03-31 03:54:00,